Flag for U.S.A. Weather past 2 weeks in Stroudsburg, Pennsylvania, U.S.A.

Now
31 °F

Clear.


Feels Like: 25 °F
Forecast: 31 / 47 °F
Wind: 6 mph from Northwest

Location: Pocono Mountains Municipal Airport

Current Time: Dec 26, 2014 at 8:05:04 AM

Latest Report: Dec 26, 2014 at 6:53 AM


Visibility: 10 mi

Pressure: 30.20 "Hg

Humidity: 79%

Dew point: 25 °F

Location of StroudsburgLocation

Historic Weather in Stroudsburg — Graph

°F

Stroudsburg temperature yesterday

Maximum temperature yesterday: 55 °F (at 12:53 AM)
Minimum temperature yesterday: 35 °F (at 11:53 PM)
Average temperature yesterday: 41 °F

Past Weeks' High & Low Weather Summary

 TemperatureHumidityPressure
High55 °F (Dec 25, 12:53 AM)100% (Dec 16, 11:53 AM)30.33 "Hg (Dec 16, 11:53 AM)
Low23 °F (Dec 11, 6:53 AM)60% (Dec 25, 10:53 AM)29.49 "Hg (Dec 25, 12:53 AM)
Average32 °F84%30.00 "Hg
* Reported Dec 11 6:53 AM — Dec 26 6:53 AM, Stroudsburg, Weather by CustomWeather, © 2014

Note: Actual official high and low records may vary slightly from our data, if they occured in-between our weather recording intervals... More about our weather records

Advertising

Stroudsburg weather history for previous 24 hours

 ConditionsComfort  
Time TempWeatherWind HumidityBarometerVisibility
6:53 AM
Dec 26
31 °FClear.6 mph79%30.20 "Hg10 mi
5:53 AM31 °FClear.7 mph79%30.19 "Hg10 mi
4:53 AM32 °FClear.9 mph75%30.15 "Hg10 mi
3:53 AM32 °FClear.7 mph75%30.13 "Hg10 mi
2:53 AM32 °FClear.6 mph75%30.13 "Hg10 mi
1:53 AM33 °FClear.7 mph75%30.13 "Hg10 mi
12:53 AM34 °FClear.10 mph73%30.11 "Hg10 mi
11:53 PM
Dec 25
35 °FClear.14 mph70%30.11 "Hg10 mi
10:53 PM36 °FClear.15 mph67%30.08 "Hg10 mi
9:53 PM36 °FClear.16 mph67%30.07 "Hg10 mi
8:53 PM36 °FPassing clouds.16 mph70%30.07 "Hg10 mi
7:53 PM38 °FOvercast.12 mph68%30.04 "Hg10 mi
6:53 PM38 °FOvercast.16 mph70%30.02 "Hg10 mi
5:53 PM39 °FPassing clouds.13 mph65%29.98 "Hg10 mi
4:53 PM39 °FPassing clouds.20 mph65%29.95 "Hg10 mi
3:53 PM40 °FOvercast.16 mph65%29.91 "Hg10 mi
2:53 PM41 °FMostly cloudy.16 mph62%29.87 "Hg10 mi
1:53 PM41 °FOvercast.23 mph62%29.82 "Hg10 mi
12:53 PM41 °FMore clouds than sun.21 mph62%29.78 "Hg10 mi
11:53 AM41 °FBroken clouds.23 mph62%29.76 "Hg10 mi
10:53 AM41 °FScattered clouds.25 mph60%29.74 "Hg10 mi
9:53 AM40 °FScattered clouds.20 mph65%29.71 "Hg10 mi
8:53 AM38 °FSunny.22 mph65%29.67 "Hg10 mi
Weather by CustomWeather, © 2014

See weather overviewHow to use our weather pages